Location: Tucson
(32.2217°N, 110.9265°W)
Time: 16:45:56
(UTC-07:00)

Transit 2A Rocket - Pass Details

Date: 10 August 2022
Orbit: 593 x 908 km, 66.7° (Epoch: 26 September)

Event Time Altitude Azimuth Distance (km) Brightness Sun altitude
Rises 19:41:21 0° 244° (WSW) 3,043 8.8 -6.5°
Reaches altitude 10° 19:44:32 10° 265° (W) 2,070 8.4 -7.1°
Maximum altitude 19:47:27 16° 304° (NW) 1,642 8.1 -7.7°
Drops below altitude 10° 19:50:18 10° 344° (NNW) 1,986 7.8 -8.2°
Sets 19:53:16 0° 6° (N) 2,861 8.2 -8.8°
